TimeMST,TemperatureF,Dew PointF,Humidity,Sea Level PressureIn,VisibilityMPH,Wind Direction,Wind SpeedMPH,Gust SpeedMPH,PrecipitationIn,Events,Conditions,WindDirDegrees,DateUTC
12:53 AM,30.0,3.9,33,29.74,10.0,NNE,9.2,-,N/A,,Overcast,30,2012-12-19 07:53:00
1:53 AM,28.9,5.0,36,29.75,10.0,NNE,12.7,-,N/A,,Overcast,20,2012-12-19 08:53:00
2:53 AM,28.9,12.0,49,29.74,10.0,NNE,12.7,-,N/A,,Overcast,20,2012-12-19 09:53:00
3:53 AM,28.9,14.0,54,29.75,10.0,North,12.7,-,N/A,,Overcast,350,2012-12-19 10:53:00
4:53 AM,28.0,12.0,51,29.75,10.0,North,18.4,-,N/A,,Overcast,10,2012-12-19 11:53:00
5:53 AM,27.0,10.9,51,29.77,10.0,North,18.4,26.5,N/A,,Overcast,350,2012-12-19 12:53:00
6:53 AM,27.0,9.0,47,29.81,10.0,North,19.6,35.7,N/A,,Overcast,360,2012-12-19 13:53:00
7:46 AM,24.8,17.6,74,29.78,1.8,North,25.3,32.2,0.00,Snow,Light Snow,360,2012-12-19 14:46:00
7:53 AM,24.1,18.0,77,29.87,1.0,North,26.5,34.5,0.00,Snow,Light Snow,350,2012-12-19 14:53:00
7:59 AM,24.8,19.4,80,29.79,0.5,North,27.6,33.4,0.00,Snow,Snow,350,2012-12-19 14:59:00
8:19 AM,23.0,19.4,86,29.79,0.2,North,24.2,35.7,0.00,Fog-Snow,Snow,360,2012-12-19 15:19:00
8:32 AM,23.0,19.4,86,29.79,0.2,North,21.9,29.9,0.00,Fog-Snow,Snow,360,2012-12-19 15:32:00
8:53 AM,23.0,19.9,88,29.88,0.2,North,24.2,31.1,0.00,Fog-Snow,Snow,10,2012-12-19 15:53:00
9:53 AM,23.0,19.9,88,29.91,0.2,North,21.9,-,0.00,Fog-Snow,Snow,10,2012-12-19 16:53:00
10:53 AM,23.0,19.9,88,29.92,0.2,North,23.0,27.6,0.00,Fog-Snow,Snow,360,2012-12-19 17:53:00
11:26 AM,23.0,19.4,86,29.81,0.5,North,20.7,34.5,0.01,Fog-Snow,Snow,10,2012-12-19 18:26:00
11:41 AM,23.0,19.4,86,29.80,0.2,North,24.2,-,0.01,Fog-Snow,Snow,10,2012-12-19 18:41:00
11:53 AM,23.0,19.9,88,29.90,0.2,North,26.5,39.1,0.01,Fog-Snow,Snow,10,2012-12-19 18:53:00
12:53 PM,23.0,19.0,85,29.93,0.2,North,21.9,28.8,0.00,Fog-Snow,Snow,360,2012-12-19 19:53:00
1:09 PM,21.2,19.4,93,29.84,0.5,North,28.8,36.8,0.00,Fog-Snow,Snow,360,2012-12-19 20:09:00
1:42 PM,21.2,17.6,86,29.87,1.0,North,24.2,34.5,0.00,Snow,Light Snow,360,2012-12-19 20:42:00
1:48 PM,21.2,17.6,86,29.87,1.2,North,24.2,-,0.00,Snow,Light Snow,360,2012-12-19 20:48:00
1:49 PM,21.9,18.0,85,29.98,1.2,North,21.9,31.1,0.00,Snow,Light Snow,360,2012-12-19 20:49:00
2:05 PM,23.0,17.6,80,29.88,2.5,North,24.2,31.1,0.00,Snow,Light Snow,350,2012-12-19 21:05:00
2:28 PM,23.0,15.8,74,29.90,5.0,North,24.2,28.8,0.00,Snow,Light Snow,360,2012-12-19 21:28:00
2:53 PM,23.0,12.9,65,30.01,9.0,North,23.0,28.8,0.00,,Overcast,350,2012-12-19 21:53:00
3:53 PM,23.0,12.0,63,30.03,10.0,North,18.4,-,N/A,,Overcast,350,2012-12-19 22:53:00
4:53 PM,21.9,10.9,63,30.06,10.0,NNW,20.7,-,N/A,,Mostly Cloudy,340,2012-12-19 23:53:00
5:53 PM,21.9,10.9,63,30.10,10.0,North,20.7,-,N/A,,Mostly Cloudy,350,2012-12-20 00:53:00
6:53 PM,18.0,8.1,65,30.15,10.0,North,13.8,-,N/A,,Clear,350,2012-12-20 01:53:00
7:53 PM,10.9,3.0,70,30.22,10.0,NW,11.5,-,N/A,,Clear,310,2012-12-20 02:53:00
8:53 PM,8.1,1.0,73,30.25,10.0,WNW,11.5,-,N/A,,Clear,300,2012-12-20 03:53:00
9:53 PM,7.0,-0.9,70,30.25,10.0,West,11.5,-,N/A,,Clear,280,2012-12-20 04:53:00
10:53 PM,7.0,-2.9,64,30.27,10.0,WNW,17.3,-,N/A,,Clear,290,2012-12-20 05:53:00
11:53 PM,6.1,-4.0,63,30.28,10.0,WNW,12.7,-,N/A,,Clear,290,2012-12-20 06:53:00